Starlink 2731

operational
NORAD ID: 48651 Int'l Des: 2021-044 Owner: SPXS Country: US Constellation: starlink
LEOCIRCULARSTARLINK_TYPE

Starlink 2731について

説明を読み込み中...

リアルタイム位置

3D地球を読み込み中...

次回通過

高度履歴

Altitude vs Time

uPlot chart will show altitude changes over time

軌道要素

1 48651U 21044P 26035.00002314 .00030865 00000-0 10511-2 0 9993
2 48651 53.1596 270.3657 0001509 84.0367 302.6967 15.30162594 5743
Epoch: Feb 4, 2026 • Age: 22 hours

現在のステータス

高度 478.7 km
速度 7.63 km/s
衛星直下点 44.01°N, 154.32°W
打ち上げ日 May 26, 2021
運用期間 4.6 years
タイプ internet

技術仕様

分類 Payload
質量 260.00 kg
乾燥質量 248.00 kg
総質量 260.00 kg
長さ 0.20 m
直径 2.80 m
スパン 9.00 m
形状 Box + pan
製造者 SPXS
バスタイプ Starlink
フェーズステータス In Orbit
所有者/国 SPXS/US

大規模コンステレーション

Loading constellations...